Probability
0 0 0 0 0 0 0 0 0 0 0 0 0 0 0 0 0 0 0 0 0 0 0 0 0 0 0 0 0 1 1 1 0 1 2 3 3 2 2 2 1 0 0
0 0 0 0 0 0 0 0 0 0 0 0 0 0 0 0 0 0 0 0 0 0 0 0 0 0 0 0 0 0 0 0 0 1 2 2 2 1 1 1 0 0 0
0 0 0 0 0 0 0 0 0 0 0 0 0 0 0 0 0 0 1 1 0 0 0 0 0 0 0 0 0 0 0 0 0 0 1 1 1 0 0 0 0 0 0
0 0 0 0 0 0 0 0 0 0 0 0 0 0 0 1 1 1 2 3 2 1 1 0 0 0 0 0 0 1 1 1 1 1 2 1 0 0 0 0 0 0 0
0 0 0 0 0 0 0 0 0 0 0 0 0 0 0 1 1 1 2 3 2 1 1 0 0 0 0 1 1 1 2 2 2 2 2 1 0 0 0 0 0 0 0
0 0 0 0 0 0 0 0 0 0 1 1 1 1 0 0 0 0 1 1 1 1 0 0 0 0 0 1 1 1 2 2 2 2 1 1 0 0 0 0 0 0 1
0 0 0 0 0 0 0 0 0 0 1 1 1 0 0 0 0 0 0 0 0 0 0 0 0 0 0 1 1 0 1 1 0 0 0 0 0 0 0 0 0 1 2
0 0 0 0 0 0 0 0 0 0 1 1 0 0 0 0 0 0 0 0 0 0 0 0 0 0 0 0 0 0 0 0 0 0 0 0 0 0 0 0 0 2 4
0 0 0 0 0 0 0 0 0 0 0 0 0 0 0 0 0 0 0 0 0 0 0 0 0 0 0 0 0 0 0 0 0 0 0 0 0 0 0 0 0 1 2
0 0 0 0 0 0 0 0 0 0 0 0 0 0 0 0 0 0 0 0 0 0 0 0 0 0 0 0 0 0 0 0 0 0 0 0 0 0 0 0 0 1 1
0 0 0 0 0 0 0 0 0 0 0 0 0 0 0 0 0 0 0 0 0 0 0 0 0 0 0 0 0 0 0 0 0 0 0 0 0 0 0 0 1 1 1
0 0 0 0 0 0 0 0 0 0 0 0 0 0 0 0 0 0 0 0 0 0 0 0 0 0 0 0 0 0 0 0 0 0 1 1 1 0 0 1 2 2 1
0 0 0 0 0 0 0 0 0 0 0 0 0 0 0 0 0 0 0 0 0 0 0 0 0 0 0 0 0 0 0 0 0 0 1 2 1 0 0 1 2 1 0
0 0 0 0 0 0 0 1 1 0 0 0 0 0 0 0 0 0 0 0 0 0 0 0 0 0 0 0 0 0 0 0 0 0 0 1 1 0 1 2 1 0 0
0 0 0 0 0 0 1 2 2 1 0 0 0 0 0 0 0 0 0 0 0 0 0 0 0 0 0 0 0 0 0 0 0 0 0 0 0 0 1 2 2 1 0
0 0 0 0 0 0 2 3 3 2 1 0 0 0 0 0 0 0 0 0 0 0 0 0 0 0 0 1 0 0 0 0 0 0 0 0 0 1 1 1 2 2 1
0 0 0 0 0 0 1 3 3 3 1 0 0 0 0 0 0 0 0 0 0 0 0 0 0 0 0 1 1 1 1 1 1 1 0 0 0 0 0 1 2 2 1
0 0 0 0 0 0 1 2 3 3 2 1 0 0 0 0 0 0 0 0 0 0 0 0 1 1 1 2 2 2 2 2 2 1 0 0 0 0 0 0 1 1 1
0 1 1 0 0 0 1 3 3 3 2 1 0 0 0 0 0 0 0 0 0 0 0 1 1 2 2 2 2 1 1 1 1 1 0 0 0 0 0 0 0 0 0
1 2 2 1 0 1 2 3 3 3 3 1 1 1 1 0 0 0 0 0 0 0 0 1 1 2 2 1 1 0 0 0 0 0 0 0 0 0 0 0 0 0 0
1 2 3 2 2 2 3 3 4 4 3 3 3 2 1 0 0 0 0 0 0 0 0 0 0 1 1 0 0 0 0 0 0 0 0 0 0 0 0 0 0 0 0
1 2 3 3 3 3 4 4 4 4 4 4 4 3 1 0 0 0 0 0 0 0 0 0 0 0 0 0 0 0 0 0 0 0 0 0 0 0 0 0 0 0 0
1 3 4 3 3 3 4 5 5 5 5 5 6 4 2 1 0 0 0 0 0 0 0 0 0 0 0 0 0 0 0 0 0 0 0 0 0 0 0 0 0 0 0
1 3 4 3 2 3 5 6 6 6 6 6 6 4 3 2 0 0 0 0 0 0 0 0 0 0 0 0 0 0 0 0 0 0 0 0 0 0 0 0 0 0 0
2 4 5 3 2 4 6 6 6 6 6 6 6 5 4 4 2 0 0 0 0 0 0 0 0 0 0 0 0 0 0 0 0 0 0 0 0 0 0 0 0 0 0
3 5 5 3 3 5 6 6 6 6 6 5 6 6 6 5 3 1 0 0 0 0 0 0 0 0 0 0 0 0 0 0 0 0 0 0 0 0 0 0 0 0 0
Wind_Speed
3 5 7 6 7 7 7 8 8 8 9 9 9 8 9 9 9 8 8 8 8 8 9 8 8 8 8 7 7 6 7 7 7 7 7 7 7 7 6 5 3 4 7
4 5 6 7 7 8 8 8 9 9 9 9 9 9 9 9 9 9 9 9 8 8 9 9 8 9 8 8 8 7 8 8 8 7 6 6 7 7 6 5 4 4 6
4 5 6 7 8 8 8 8 9 9 9 9 9 9 9 9 9 9 9 9 10 9 9 9 9 9 8 8 8 8 8 8 8 7 4 4 6 7 6 6 5 5 6
5 5 7 8 7 8 8 8 9 9 9 9 10 10 9 10 10 10 10 11 11 10 10 10 9 9 8 8 9 9 9 8 7 4 3 4 5 8 6 5 5 6 6
5 6 8 7 7 7 8 8 9 9 9 10 11 11 10 10 11 10 11 10 11 11 11 10 9 9 9 9 9 8 8 7 5 3 5 5 5 7 6 5 5 6 6
5 6 8 6 7 7 8 8 9 9 10 11 11 11 11 11 11 10 10 11 11 11 11 10 9 9 9 9 9 8 7 4 2 4 4 4 5 7 6 6 6 6 6
6 6 8 7 7 7 8 8 9 10 11 11 11 11 11 10 10 10 10 11 11 11 11 11 10 11 11 10 10 9 8 5 4 5 4 5 6 7 7 7 7 6 6
6 6 7 8 8 8 9 9 9 10 11 11 11 11 10 11 11 10 10 10 11 11 11 11 11 11 11 11 10 9 7 5 5 5 5 6 8 8 8 8 8 8 8
6 6 6 6 7 7 8 9 9 9 10 10 10 10 10 10 10 10 10 10 10 10 11 11 12 11 11 11 10 10 8 5 4 5 6 6 9 9 9 9 8 9 9
6 6 6 6 6 5 7 9 8 9 9 9 9 9 7 7 8 8 9 9 9 10 11 11 11 11 11 10 10 8 5 2 6 6 5 8 10 10 9 9 9 9 9
5 5 5 5 6 5 6 6 6 7 7 5 6 6 2 4 6 7 11 9 9 9 10 10 9 9 8 9 8 4 2 4 6 6 6 9 9 10 10 10 10 10 10
5 5 4 5 5 6 5 4 4 4 5 4 5 5 4 5 5 6 9 8 8 7 8 8 6 4 3 5 5 1 3 6 5 5 7 9 9 9 9 10 10 11 11
4 4 4 4 5 5 4 4 3 3 3 4 5 5 4 4 3 3 3 4 4 4 4 5 3 3 4 4 4 4 5 5 4 5 7 8 9 9 9 10 10 11 11
3 4 4 4 4 4 4 4 3 3 3 3 4 5 3 3 3 3 2 3 2 2 3 3 2 4 4 5 5 5 6 4 4 4 6 8 9 9 9 10 10 10 10
2 3 3 3 3 3 4 3 3 3 3 4 3 3 4 3 3 3 3 2 3 3 2 2 3 4 4 4 5 5 5 6 6 5 5 9 8 8 8 9 9 9 9
2 2 3 2 3 3 3 3 3 3 3 3 3 3 4 3 2 2 3 3 3 3 2 2 3 3 3 3 4 4 5 5 5 5 4 6 8 8 8 8 8 8 7
1 2 3 2 2 2 3 3 2 2 3 2 3 3 4 3 3 2 2 3 3 2 3 2 3 2 3 3 3 4 4 4 4 4 4 3 5 7 7 7 7 6 6
1 2 3 2 1 2 2 2 2 2 2 2 2 3 3 3 3 2 2 2 2 2 2 2 2 2 2 2 3 3 3 3 4 4 3 3 3 3 5 6 6 6 5
2 2 3 2 2 2 2 1 2 2 2 2 2 2 3 3 3 3 2 2 2 2 2 2 2 2 2 2 2 2 2 3 3 3 3 4 4 3 3 5 4 5 5
2 2 2 3 1 2 1 1 1 2 2 2 2 2 3 3 3 3 2 2 2 1 1 1 2 2 2 1 2 2 2 2 2 3 3 3 3 3 3 3 2 3 5
3 2 2 2 1 1 1 0 0 1 1 1 2 2 2 3 3 3 2 2 1 1 1 1 1 2 1 1 1 2 2 2 2 2 2 2 3 3 2 2 2 2 3
3 3 2 2 1 1 0 0 0 0 1 1 1 1 2 3 2 2 2 1 1 1 1 1 1 0 1 0 1 1 1 2 1 1 1 1 1 2 2 2 3 2 2
3 3 2 2 2 1 1 0 1 1 0 1 1 1 2 2 2 2 2 2 2 1 0 0 0 0 0 0 1 2 1 0 1 1 0 0 1 1 1 2 2 2 2
2 2 3 2 2 1 2 1 1 0 0 1 1 1 1 2 2 2 2 2 2 1 1 0 0 0 1 1 0 1 2 1 1 1 2 1 1 1 1 1 1 2 2
2 2 2 2 2 2 2 1 1 0 1 1 1 1 2 1 2 2 2 1 1 1 1 1 0 1 1 1 1 1 1 1 2 2 1 1 1 1 0 0 0 1 1
2 2 2 2 2 2 2 2 1 1 1 1 1 1 1 1 1 2 2 1 1 1 1 1 1 1 1 1 1 1 1 1 1 1 2 2 1 1 0 0 0 0 0
Wind_Direction
29 36 40 40 54 58 57 59 66 67 69 72 74 73 76 77 77 79 77 78 80 86 88 86 86 84 84 87 86 79 81 84 91 97 94 93 98 99 99 96 111 111 95
45 55 58 48 54 56 60 61 63 65 67 70 72 72 75 75 74 72 70 72 77 87 90 83 82 82 79 79 76 75 81 82 84 89 92 97 96 94 92 85 68 79 97
60 63 78 58 56 56 58 60 60 62 66 68 70 73 75 73 71 69 68 71 78 87 92 87 82 80 78 76 73 74 77 77 76 80 87 98 96 88 83 84 84 90 94
67 61 66 61 58 56 59 60 61 61 64 67 69 73 76 75 71 67 67 70 76 84 87 85 82 79 78 77 76 75 74 72 69 67 78 72 77 82 76 78 84 88 89
75 70 72 55 59 61 63 61 62 64 66 68 70 74 76 74 70 67 67 71 74 78 80 79 78 77 78 78 78 78 76 71 70 64 65 64 68 75 72 75 87 96 93
81 76 79 57 62 63 64 64 64 66 71 71 70 72 70 69 68 65 67 70 72 73 74 74 73 73 73 74 75 76 74 71 89 73 71 69 73 76 70 73 87 93 95
78 75 80 64 61 62 65 67 66 68 71 69 67 69 68 68 70 69 69 69 69 71 70 69 68 72 72 72 73 74 68 52 66 74 75 68 67 70 70 72 85 92 94
74 74 86 85 68 64 64 66 66 69 71 71 68 65 66 68 70 70 72 69 69 71 71 70 71 72 72 71 71 68 57 30 74 70 71 69 68 69 72 74 82 84 83
73 72 73 85 97 96 77 65 66 68 71 71 71 69 68 69 71 71 73 70 72 75 76 76 75 74 73 71 69 65 57 31 62 70 73 71 70 70 73 75 77 80 80
73 68 67 69 68 81 92 79 72 70 68 70 70 67 72 89 89 83 83 72 72 76 76 77 78 76 73 70 66 62 50 28 61 67 68 72 68 69 70 73 75 79 80
72 69 67 68 69 67 71 89 97 94 77 89 92 82 87 83 83 90 71 68 70 74 76 77 78 79 84 82 70 53 24 60 63 60 63 64 65 68 68 70 73 76 78
77 69 64 67 67 70 68 77 76 80 78 63 65 67 65 70 69 70 88 75 73 79 87 82 89 110 102 90 94 100 61 66 65 66 69 63 65 68 69 73 74 74 75
71 69 60 67 71 74 77 69 64 69 73 63 56 62 64 71 83 74 87 105 96 98 83 96 113 72 71 68 61 62 55 53 60 65 70 65 67 70 73 74 74 74 74
75 72 68 64 71 72 76 75 71 68 68 64 53 55 57 60 60 65 66 62 67 70 65 61 60 71 70 77 74 71 70 62 60 63 70 67 69 72 74 73 72 72 72
90 86 74 63 69 78 78 74 76 65 56 66 53 44 52 50 51 60 70 68 63 66 71 56 63 66 61 63 65 67 71 71 68 67 81 73 65 66 70 72 71 72 72
88 91 91 84 78 79 82 79 74 66 64 57 53 43 47 51 48 40 58 61 57 53 49 50 64 69 65 61 61 64 68 71 71 72 76 87 77 67 64 64 65 71 73
111 108 98 88 87 79 75 67 68 62 61 53 48 36 44 43 43 43 45 54 53 58 61 48 60 63 72 78 74 64 62 58 63 71 72 69 89 89 72 62 60 66 70
135 123 117 109 100 90 83 79 65 59 53 48 50 34 32 35 38 42 47 52 48 52 55 56 51 68 75 71 71 65 66 64 57 61 70 72 64 75 90 73 62 62 67
145 135 126 119 109 101 96 91 65 63 56 46 46 34 20 24 27 39 32 38 53 55 52 50 50 42 63 63 69 68 62 65 58 61 70 69 70 66 71 89 76 58 56
147 145 128 121 109 110 114 85 78 62 54 45 42 28 20 13 20 35 26 30 49 65 65 68 77 62 50 58 74 72 62 82 75 64 61 62 53 55 57 62 88 81 62
160 161 132 129 128 129 142 157 116 51 45 48 35 30 20 11 16 31 3 21 19 44 64 75 77 89 70 45 128 126 112 93 75 76 63 58 63 55 49 42 44 53 87
174 176 162 156 152 134 203 193 181 71 31 45 25 25 12 4 7 11 5 9 15 13 53 72 89 24 93 274 273 235 180 153 114 77 64 49 51 70 55 43 38 39 35
187 187 178 164 158 150 148 173 138 124 108 76 14 9 357 354 357 2 358 359 348 341 23 18 106 199 261 225 314 307 291 315 125 144 95 76 60 56 61 55 45 54 43
201 192 185 169 163 149 145 133 133 161 295 338 334 344 346 354 353 350 351 347 350 352 335 320 40 262 271 244 172 304 310 336 267 179 181 153 86 55 24 75 46 54 48
190 179 187 170 153 142 139 135 169 327 301 313 326 341 337 347 342 346 343 337 347 344 313 327 270 249 242 266 256 230 241 244 272 266 214 211 188 163 31 7 89 46 39
151 157 169 172 157 151 160 170 178 198 266 326 333 333 322 338 323 339 337 322 318 328 309 269 239 223 227 234 251 258 249 237 250 255 255 241 228 210 219 271 311 110 348